W4WYD-2 Weather Reports


Display with metric or nautical units.
time (UTC)temp
F
wind
direction
speed
MPH
gust
MPH
rain 1hr
in
rain 24hr
in
rain mn
in
humidity
%
barometer
mb
20260904141207 84 214 0.0 1.0 0.00 0.00 0.00 83 1017.4
20260904140702 83 214 0.0 0.0 0.00 0.00 0.00 89 1017.3
20260904140157 81 215 0.0 1.0 0.00 0.00 0.00 95 1017.2
20260904135656 80 220 0.0 0.0 0.00 0.00 0.00 99 1017.5
20260904135152 80 213 0.0 0.0 0.00 0.00 0.00 99 1017.3
20260904134648 79 209 0.0 0.0 0.00 0.00 0.00 99 1017.3
20260904134147 78 197 0.0 0.0 0.00 0.00 0.00 99 1017.3
20260904133642 78 218 0.0 0.0 0.00 0.00 0.00 99 1017.3
20260904133138 78 217 0.0 0.0 0.00 0.00 0.00 99 1017.3
20260904132637 78 219 0.0 0.0 0.00 0.00 0.00 99 1017.4
20260904132132 77 219 0.0 0.0 0.00 0.00 0.00 99 1017.3
20260904131632 77 219 0.0 0.0 0.00 0.00 0.00 99 1017.5
20260904131128 77 219 0.0 0.0 0.00 0.00 0.00 99 1017.4
20260904130627 77 219 0.0 0.0 0.00 0.00 0.00 99 1017.2
20260904130122 76 219 0.0 0.0 0.00 0.00 0.00 99 1017.3
20260904125618 76 219 0.0 0.0 0.00 0.00 0.00 99 1017.3
20260904125118 75 219 0.0 0.0 0.00 0.00 0.00 99 1017.3
20260904124608 75 219 0.0 0.0 0.00 0.00 0.00 99 1017.3
20260904124104 74 219 0.0 0.0 0.00 0.00 0.00 99 1017.2
20260904123603 74 219 0.0 0.0 0.00 0.00 0.00 99 1017.2
20260904123059 74 219 0.0 0.0 0.00 0.00 0.00 99 1017.1
20260904122554 73 219 0.0 0.0 0.00 0.00 0.00 99 1017.1
20260904122049 73 219 0.0 0.0 0.00 0.00 0.00 99 1017.0
20260904121544 73 219 0.0 0.0 0.00 0.00 0.00 99 1017.0
20260904121040 73 219 0.0 0.0 0.00 0.00 0.00 99 1016.8
20260904120536 73 219 0.0 0.0 0.00 0.00 0.00 99 1017.0
20260904120032 73 219 0.0 0.0 0.00 0.00 0.00 99 1016.8
20260904115526 73 219 0.0 0.0 0.00 0.00 0.00 99 1016.8
20260904115020 73 219 0.0 0.0 0.00 0.00 0.00 99 1016.9
20260904114515 73 219 0.0 0.0 0.00 0.00 0.00 99 1016.6
20260904114011 73 219 0.0 0.0 0.00 0.00 0.00 99 1016.5
20260904113510 73 219 0.0 0.0 0.00 0.00 0.00 99 1016.4
20260904113010 73 219 0.0 0.0 0.00 0.00 0.00 99 1016.3
20260904112505 73 219 0.0 0.0 0.00 0.00 0.00 99 1016.4
20260904112000 73 219 0.0 0.0 0.00 0.00 0.00 99 1016.3
20260904111456 73 219 0.0 0.0 0.00 0.00 0.00 99 1016.5
20260904110952 73 219 0.0 0.0 0.00 0.00 0.00 99 1016.1
20260904110451 73 219 0.0 0.0 0.00 0.00 0.00 99 1016.3
20260904105941 73 219 0.0 0.0 0.00 0.00 0.00 99 1016.2
20260904105435 73 219 0.0 0.0 0.00 0.00 0.00 99 1016.0
20260904104930 73 219 0.0 0.0 0.00 0.00 0.00 99 1016.1
20260904104430 73 219 0.0 0.0 0.00 0.00 0.00 99 1016.2
20260904103927 73 219 0.0 0.0 0.00 0.00 0.00 99 1016.2
20260904103422 73 219 0.0 0.0 0.00 0.00 0.00 99 1016.0
20260904102918 73 219 0.0 0.0 0.00 0.00 0.00 99 1016.1
20260904102414 73 219 0.0 0.0 0.00 0.00 0.00 99 1015.9
20260904101909 73 219 0.0 0.0 0.00 0.00 0.00 99 1015.8
20260904101406 73 219 0.0 0.0 0.00 0.00 0.00 99 1016.0
20260904100901 73 219 0.0 0.0 0.00 0.00 0.00 99 1016.0
20260904100357 73 219 0.0 0.0 0.00 0.00 0.00 99 1016.0
20260904095851 73 219 0.0 0.0 0.00 0.00 0.00 99 1016.0
20260904095346 73 219 0.0 0.0 0.00 0.00 0.00 99 1015.9
20260904094841 73 219 0.0 0.0 0.00 0.00 0.00 99 1015.7
20260904094336 73 219 0.0 0.0 0.00 0.00 0.00 99 1015.9
20260904093833 73 219 0.0 0.0 0.00 0.00 0.00 99 1015.7
20260904093332 73 219 0.0 0.0 0.00 0.00 0.00 99 1015.6
20260904092828 73 219 0.0 0.0 0.00 0.00 0.00 99 1015.6
20260904092325 73 219 0.0 0.0 0.00 0.00 0.00 99 1015.6
20260904091820 73 219 0.0 0.0 0.00 0.00 0.00 99 1015.5
20260904091315 73 219 0.0 0.0 0.00 0.00 0.00 99 1015.5
20260904090810 74 219 0.0 0.0 0.00 0.00 0.00 99 1015.5
20260904090306 74 219 0.0 0.0 0.00 0.00 0.00 99 1015.6
20260904085800 74 219 0.0 0.0 0.00 0.00 0.00 99 1015.5
20260904085256 74 219 0.0 0.0 0.00 0.00 0.00 99 1015.8
20260904084750 74 219 0.0 0.0 0.00 0.00 0.00 99 1015.7
20260904084246 74 219 0.0 0.0 0.00 0.00 0.00 99 1015.6
20260904083742 74 219 0.0 0.0 0.00 0.00 0.00 99 1015.5
20260904083239 74 219 0.0 0.0 0.00 0.00 0.00 99 1015.6
20260904082739 74 219 0.0 0.0 0.00 0.00 0.00 99 1015.7
20260904082234 74 219 0.0 0.0 0.00 0.00 0.00 99 1015.6
20260904081729 74 219 0.0 0.0 0.00 0.00 0.00 99 1015.6
20260904081224 74 219 0.0 0.0 0.00 0.00 0.00 99 1015.7
20260904080720 74 219 0.0 1.0 0.00 0.00 0.00 99 1015.8
20260904080210 74 219 0.0 0.0 0.00 0.00 0.00 99 1015.6
20260904075706 74 219 0.0 0.0 0.00 0.00 0.00 99 1015.7
20260904075201 74 219 0.0 0.0 0.00 0.00 0.00 99 1015.6
20260904074700 74 219 0.0 0.0 0.00 0.00 0.00 99 1015.5
20260904074155 74 219 0.0 0.0 0.00 0.00 0.00 99 1015.3
20260904073650 74 219 0.0 0.0 0.00 0.00 0.00 99 1015.6
20260904073146 74 219 0.0 0.0 0.00 0.00 0.00 99 1015.4
20260904072642 74 219 0.0 0.0 0.00 0.00 0.00 99 1015.4
20260904072136 74 219 0.0 0.0 0.00 0.00 0.00 99 1015.6
20260904071632 74 219 0.0 0.0 0.00 0.00 0.00 99 1015.4
20260904071126 74 219 0.0 0.0 0.00 0.00 0.00 99 1015.5
20260904070625 74 219 0.0 0.0 0.00 0.00 0.00 99 1015.4
20260904070121 74 219 0.0 0.0 0.00 0.00 0.00 99 1015.6
20260904065615 74 219 0.0 0.0 0.00 0.00 0.00 99 1015.5
20260904065113 74 219 0.0 0.0 0.00 0.00 0.00 99 1015.6
20260904064608 74 219 0.0 0.0 0.00 0.00 0.00 99 1015.7
20260904064107 74 219 0.0 0.0 0.00 0.00 0.00 99 1015.7
20260904063603 74 219 0.0 0.0 0.00 0.00 0.00 99 1015.7
20260904063059 74 219 0.0 0.0 0.00 0.00 0.00 99 1015.7
20260904062555 74 219 0.0 0.0 0.00 0.00 0.00 99 1015.7
20260904062050 75 219 0.0 0.0 0.00 0.00 0.00 99 1015.7
20260904061546 75 219 0.0 0.0 0.00 0.00 0.00 99 1015.7
20260904061042 75 219 0.0 0.0 0.00 0.00 0.00 99 1015.8
20260904060538 75 219 0.0 0.0 0.00 0.00 0.00 99 1015.9
20260904060034 75 219 0.0 0.0 0.00 0.00 0.00 99 1015.8
20260904055529 75 219 0.0 1.0 0.00 0.00 0.00 99 1015.9
20260904055024 75 219 0.0 0.0 0.00 0.00 0.00 99 1015.7
20260904054520 75 219 0.0 0.0 0.00 0.00 0.00 99 1015.5
20260904054016 75 219 0.0 0.0 0.00 0.00 0.00 98 1015.9
20260904053515 75 219 0.0 0.0 0.00 0.00 0.00 98 1015.5
20260904053010 75 219 0.0 0.0 0.00 0.00 0.00 98 1015.8
20260904052507 75 219 0.0 0.0 0.00 0.00 0.00 99 1015.9
20260904052002 75 219 0.0 0.0 0.00 0.00 0.00 98 1015.7
20260904051459 75 219 0.0 0.0 0.00 0.00 0.00 98 1015.8
20260904050958 75 219 0.0 0.0 0.00 0.00 0.00 98 1015.8
20260904050455 75 219 0.0 1.0 0.00 0.00 0.00 98 1015.7
20260904045950 75 219 0.0 0.0 0.00 0.00 0.00 98 1016.0
20260904045450 75 219 0.0 0.0 0.00 0.00 0.00 98 1016.0
20260904044944 75 219 0.0 0.0 0.00 0.00 0.00 98 1015.9
20260904044441 75 219 0.0 0.0 0.00 0.00 0.00 98 1015.9
20260904043937 75 219 0.0 0.0 0.00 0.00 0.00 98 1016.0
20260904043433 75 219 0.0 0.0 0.00 0.00 0.00 98 1016.1
20260904042928 75 219 0.0 0.0 0.00 0.00 0.00 98 1016.1
20260904042424 75 219 0.0 0.0 0.00 0.00 0.00 98 1016.3
20260904041919 75 219 0.0 0.0 0.00 0.00 0.00 98 1016.0
20260904041416 76 219 0.0 0.0 0.00 0.00 0.00 98 1016.2
20260904040912 75 219 0.0 0.0 0.00 0.00 0.00 98 1016.1
20260904040406 76 219 0.0 0.0 0.00 0.00 0.00 98 1016.2
20260904035902 76 219 0.0 0.0 0.00 0.00 0.00 98 1016.1
20260904035358 76 219 0.0 0.0 0.00 0.00 0.00 98 1016.2
20260904034857 76 219 0.0 0.0 0.00 0.00 0.00 97 1016.1
20260904034352 76 219 0.0 0.0 0.00 0.00 0.00 97 1016.3
20260904033842 76 219 0.0 0.0 0.00 0.00 0.00 97 1016.0
20260904033339 76 219 0.0 0.0 0.00 0.00 0.00 97 1015.9
20260904032835 76 219 0.0 0.0 0.00 0.00 0.00 97 1016.1
20260904032334 76 219 0.0 0.0 0.00 0.00 0.00 97 1016.0
20260904031828 76 219 1.0 1.0 0.00 0.00 0.00 97 1016.0
20260904031324 77 219 0.0 0.0 0.00 0.00 0.00 97 1016.1
20260904030820 77 219 0.0 0.0 0.00 0.00 0.00 97 1016.2
20260904030315 77 219 0.0 1.0 0.00 0.00 0.00 97 1016.3
20260904025811 77 219 0.0 1.0 0.00 0.00 0.00 97 1016.1
20260904025306 77 219 0.0 0.0 0.00 0.00 0.00 97 1016.4
20260904024756 77 219 0.0 0.0 0.00 0.00 0.00 97 1016.2
20260904024251 77 219 0.0 0.0 0.00 0.00 0.00 97 1016.4
20260904023747 77 219 0.0 0.0 0.00 0.00 0.00 97 1016.1
20260904023243 77 219 0.0 1.0 0.00 0.00 0.00 97 1016.2
20260904022742 77 219 0.0 0.0 0.00 0.00 0.00 97 1016.1
20260904022239 78 219 0.0 1.0 0.00 0.00 0.00 97 1016.0
20260904021730 78 219 0.0 0.0 0.00 0.00 0.00 96 1015.9
20260904021230 78 219 0.0 0.0 0.00 0.00 0.00 96 1015.9
20260904020726 78 219 0.0 0.0 0.00 0.00 0.00 96 1016.0
20260904020225 78 219 1.0 1.0 0.00 0.00 0.00 96 1015.8
20260904015724 78 219 0.0 0.0 0.00 0.00 0.00 96 1016.0
20260904015219 78 219 0.0 0.0 0.00 0.00 0.00 96 1016.0
20260904014717 78 219 0.0 0.0 0.00 0.00 0.00 96 1015.9
20260904014213 78 219 0.0 0.0 0.00 0.00 0.00 96 1015.8
20260904013709 79 219 0.0 0.0 0.00 0.00 0.00 96 1015.8
20260904013205 79 219 0.0 0.0 0.00 0.00 0.00 95 1015.7
20260904012701 79 219 0.0 0.0 0.00 0.00 0.00 95 1015.5
20260904012159 79 219 0.0 0.0 0.00 0.00 0.00 95 1015.5
20260904011659 79 219 0.0 0.0 0.00 0.00 0.00 94 1015.6
20260904011155 80 219 0.0 0.0 0.00 0.00 0.00 94 1015.7
20260904010655 80 219 0.0 0.0 0.00 0.00 0.00 94 1015.5
20260904010152 80 219 0.0 0.0 0.00 0.00 0.00 93 1015.6
20260904005647 80 219 0.0 0.0 0.00 0.00 0.00 93 1015.1
20260904005143 80 219 0.0 0.0 0.00 0.00 0.00 93 1015.3
20260904004638 80 219 0.0 0.0 0.00 0.00 0.00 93 1015.6
20260904004138 81 219 1.0 1.0 0.00 0.00 0.00 92 1015.4
20260904003633 81 219 0.0 0.0 0.00 0.00 0.00 92 1015.5
20260904003129 81 219 0.0 0.0 0.00 0.00 0.00 91 1015.4
20260904002626 82 219 1.0 1.0 0.00 0.00 0.00 91 1015.4
20260904002126 82 219 0.0 1.0 0.00 0.00 0.00 90 1015.3
20260904001621 82 219 0.0 0.0 0.00 0.00 0.00 90 1015.3
20260904001120 83 219 0.0 1.0 0.00 0.00 0.00 90 1015.5
20260904000615 83 219 0.0 0.0 0.00 0.00 0.00 88 1015.2
20260904000111 84 219 0.0 0.0 0.00 0.00 0.00 88 1015.3
20260903235610 84 219 1.0 1.0 0.00 0.00 0.00 87 1015.4
20260903235107 85 219 1.0 1.0 0.00 0.00 0.00 85 1015.2
20260903234601 86 219 0.0 0.0 0.00 0.00 0.00 83 1015.3
20260903234057 87 219 0.0 0.0 0.00 0.00 0.00 81 1015.0
20260903233553 86 219 0.0 0.0 0.00 0.00 0.00 82 1015.3
20260903233048 87 219 1.0 1.0 0.00 0.00 0.00 82 1015.4
20260903232543 87 219 1.0 1.0 0.00 0.00 0.00 79 1015.0
20260903232038 88 219 1.0 1.0 0.00 0.00 0.00 77 1014.9
20260903231532 88 219 0.0 1.0 0.00 0.00 0.00 77 1014.9
20260903231027 89 219 1.0 1.0 0.00 0.00 0.00 77 1015.1
20260903230524 90 219 1.0 1.0 0.00 0.00 0.00 74 1014.9
20260903230022 90 219 0.0 1.0 0.00 0.00 0.00 75 1014.8
20260903225520 91 219 1.0 1.0 0.00 0.00 0.00 72 1014.7
20260903225016 91 219 0.0 1.0 0.00 0.00 0.00 71 1014.7
20260903224512 92 220 1.0 1.0 0.00 0.00 0.00 70 1014.7
20260903224008 94 220 1.0 1.0 0.00 0.00 0.00 67 1014.7
20260903223507 95 217 0.0 1.0 0.00 0.00 0.00 64 1014.7
20260903223006 96 220 0.0 1.0 0.00 0.00 0.00 65 1014.7
20260903222501 96 220 0.0 1.0 0.00 0.00 0.00 62 1014.7
20260903222000 96 209 0.0 1.0 0.00 0.00 0.00 60 1014.9
20260903221455 96 219 0.0 1.0 0.00 0.00 0.00 64 1015.0
20260903220953 97 219 0.0 1.0 0.00 0.00 0.00 63 1014.9
20260903220447 98 219 1.0 1.0 0.00 0.00 0.00 60 1015.0
20260903215944 99 219 0.0 0.0 0.00 0.00 0.00 55 1014.8
20260903215442 99 219 0.0 0.0 0.00 0.00 0.00 54 1014.9
20260903214940 99 218 0.0 0.0 0.00 0.00 0.00 55 1014.9
20260903214435 99 203 0.0 1.0 0.00 0.00 0.00 47 1015.0
20260903213935 100 215 0.0 0.0 0.00 0.00 0.00 51 1015.0
20260903213431 100 216 0.0 0.0 0.00 0.00 0.00 50 1014.9
20260903212927 100 225 0.0 1.0 0.00 0.00 0.00 49 1015.0
20260903212422 100 209 0.0 1.0 0.00 0.00 0.00 48 1015.0
20260903211922 100 219 0.0 0.0 0.00 0.00 0.00 48 1015.1
20260903211418 100 224 0.0 1.0 0.00 0.00 0.00 49 1015.0
20260903210914 99 225 0.0 0.0 0.00 0.00 0.00 50 1015.3
20260903210413 100 237 1.0 2.0 0.00 0.00 0.00 46 1015.2
20260903205909 100 220 1.0 1.0 0.00 0.00 0.00 53 1015.3
20260903205408 99 216 0.0 1.0 0.00 0.00 0.00 49 1015.5
20260903204903 99 236 0.0 2.0 0.00 0.00 0.00 46 1015.4
20260903204359 100 204 1.0 1.0 0.00 0.00 0.00 51 1015.3
20260903203854 99 233 0.0 1.0 0.00 0.00 0.00 48 1015.6
20260903203350 99 215 1.0 1.0 0.00 0.00 0.00 52 1015.5
20260903202849 98 222 0.0 1.0 0.00 0.00 0.00 49 1015.7
20260903202346 98 249 0.0 1.0 0.00 0.00 0.00 50 1015.8
20260903201845 100 218 0.0 1.0 0.00 0.00 0.00 49 1015.7
20260903201341 100 214 0.0 1.0 0.00 0.00 0.00 48 1016.0
20260903200839 100 218 0.0 1.0 0.00 0.00 0.00 45 1015.9
20260903200335 100 227 1.0 2.0 0.00 0.00 0.00 45 1016.0
20260903195830 101 217 0.0 1.0 0.00 0.00 0.00 44 1015.9
20260903195326 100 224 0.0 1.0 0.00 0.00 0.00 47 1016.0
20260903194821 99 211 0.0 2.0 0.00 0.00 0.00 46 1016.1
20260903194316 100 221 0.0 1.0 0.00 0.00 0.00 45 1015.8
20260903193812 99 235 0.0 1.0 0.00 0.00 0.00 43 1016.4
20260903193308 100 202 2.0 2.0 0.00 0.00 0.00 43 1016.2
20260903192803 99 217 1.0 1.0 0.00 0.00 0.00 51 1016.2
20260903192259 98 214 0.0 1.0 0.00 0.00 0.00 53 1016.3
20260903191755 98 214 1.0 2.0 0.00 0.00 0.00 45 1016.4
20260903191250 99 236 2.0 3.0 0.00 0.00 0.00 47 1016.4
20260903190745 99 220 1.0 2.0 0.00 0.00 0.00 49 1016.2
20260903190244 99 213 1.0 1.0 0.00 0.00 0.00 45 1016.6
20260903185739 98 221 0.0 1.0 0.00 0.00 0.00 45 1016.4
20260903185239 98 219 1.0 1.0 0.00 0.00 0.00 48 1016.4
20260903184736 97 236 0.0 1.0 0.00 0.00 0.00 51 1016.7
20260903184231 97 232 4.0 5.0 0.00 0.00 0.00 48 1016.7
20260903183727 96 221 0.0 2.0 0.00 0.00 0.00 52 1016.6
20260903183221 97 326 2.0 3.0 0.00 0.00 0.00 50 1016.8
20260903182720 97 247 0.0 1.0 0.00 0.00 0.00 52 1016.8
20260903182215 97 215 1.0 1.0 0.00 0.00 0.00 48 1016.9
20260903181713 97 215 0.0 1.0 0.00 0.00 0.00 48 1016.9
20260903181203 97 217 1.0 2.0 0.00 0.00 0.00 48 1017.0
20260903180658 97 282 1.0 5.0 0.00 0.00 0.00 48 1017.0
20260903180158 97 232 0.0 1.0 0.00 0.00 0.00 51 1017.1
20260903175657 96 242 2.0 2.0 0.00 0.00 0.00 48 1017.2
20260903175151 96 233 1.0 2.0 0.00 0.00 0.00 47 1017.2
20260903174645 96 213 2.0 3.0 0.00 0.00 0.00 48 1017.3
20260903174140 96 229 0.0 0.0 0.00 0.00 0.00 52 1017.3
20260903173635 95 204 0.0 1.0 0.00 0.00 0.00 51 1017.3
20260903173132 95 247 0.0 1.0 0.00 0.00 0.00 49 1017.2
20260903172631 96 224 1.0 1.0 0.00 0.00 0.00 49 1017.3
20260903172126 95 264 1.0 1.0 0.00 0.00 0.00 45 1017.5
20260903171620 95 249 1.0 2.0 0.00 0.00 0.00 45 1017.4
20260903171117 95 244 2.0 3.0 0.00 0.00 0.00 48 1017.5
20260903170615 95 228 1.0 2.0 0.00 0.00 0.00 53 1017.7
20260903170111 95 227 1.0 3.0 0.00 0.00 0.00 51 1017.5
20260903165609 94 238 0.0 3.0 0.00 0.00 0.00 51 1017.6
20260903165104 94 255 1.0 2.0 0.00 0.00 0.00 54 1017.6
20260903164558 94 232 2.0 2.0 0.00 0.00 0.00 52 1017.7
20260903164055 93 214 1.0 1.0 0.00 0.00 0.00 55 1017.8
20260903163555 94 213 2.0 3.0 0.00 0.00 0.00 55 1017.9
20260903163051 94 225 0.0 1.0 0.00 0.00 0.00 60 1018.1
20260903162547 93 221 0.0 1.0 0.00 0.00 0.00 59 1018.1
20260903162042 93 227 1.0 1.0 0.00 0.00 0.00 62 1017.9
20260903161538 92 237 0.0 2.0 0.00 0.00 0.00 61 1017.8
20260903161034 93 227 0.0 0.0 0.00 0.00 0.00 66 1018.0
20260903160532 93 232 0.0 0.0 0.00 0.00 0.00 64 1018.0
20260903160027 93 208 0.0 1.0 0.00 0.00 0.00 61 1018.0
20260903155526 92 204 0.0 1.0 0.00 0.00 0.00 64 1018.0
20260903155022 91 247 1.0 2.0 0.00 0.00 0.00 62 1017.9
20260903154518 91 210 0.0 3.0 0.00 0.00 0.00 65 1018.1
20260903154015 90 233 0.0 1.0 0.00 0.00 0.00 63 1018.0
20260903153509 90 218 0.0 1.0 0.00 0.00 0.00 72 1018.0
20260903153005 89 217 0.0 1.0 0.00 0.00 0.00 74 1018.0
20260903152501 89 217 1.0 2.0 0.00 0.00 0.00 70 1018.0
20260903151957 89 230 0.0 1.0 0.00 0.00 0.00 67 1018.0
20260903151456 88 233 0.0 0.0 0.00 0.00 0.00 71 1018.0
20260903150952 88 234 0.0 2.0 0.00 0.00 0.00 72 1018.2
20260903150451 87 231 1.0 1.0 0.00 0.00 0.00 73 1018.3
20260903145946 87 213 1.0 1.0 0.00 0.00 0.00 74 1018.1
20260903145441 87 206 1.0 2.0 0.00 0.00 0.00 74 1018.0
20260903144937 87 217 1.0 2.0 0.00 0.00 0.00 74 1018.2
20260903144435 87 230 0.0 0.0 0.00 0.00 0.00 75 1018.1
20260903143932 87 227 0.0 1.0 0.00 0.00 0.00 74 1018.2
20260903143427 87 214 0.0 1.0 0.00 0.00 0.00 76 1018.3
20260903142923 86 204 0.0 1.0 0.00 0.00 0.00 79 1017.9
20260903142419 85 213 0.0 1.0 0.00 0.00 0.00 80 1018.4
20260903141915 84 196 0.0 0.0 0.00 0.00 0.00 82 1018.3
20260903141410 84 208 0.0 1.0 0.00 0.00 0.00 81 1018.2